Regional Weather Roundup
Issued by NWS Upton, NY

Current Version | Previous Version | Graphics & Text | Print | Product List | Glossary Off
Versions: 1 2 3 4 5 6 7 8 9 10 11 12 13 14 15 16 17 18 19 20 21 22 23 24 25 26 27 28 29 30 31 32 33 34 35 36 37 38 39 40 41 42 43 44 45 46 47 48 49 50

085
ASUS41 KOKX 030904
RWROKX

REGIONAL WEATHER ROUNDUP
NATIONAL WEATHER SERVICE NEW YORK NY
500 AM EDT TUE MAY 03 2016

NOTE: "FAIR" INDICATES FEW OR NO CLOUDS BELOW 12,000 FEET WITH NO
SIGNIFICANT WEATHER AND/OR OBSTRUCTIONS TO VISIBILITY.

NYZ071-072-176-178-NJZ106-104-031000-
NEW YORK CITY METRO AREA


CITY           SKY/WX    TMP DP  RH WIND       PRES   REMARKS
CENTRAL PARK   RAIN      53  51  93 VRB5      29.88F FOG
LAGUARDIA APRT RAIN      54  51  90 NE8       29.86S FOG
KENNEDY INTL   LGT RAIN  53  51  93 NE10      29.86F FOG
NEWARK/LIBERTY RAIN      54  54 100 NE6       29.85F FOG
BRNX BOT. GARD   N/A     52  50  93 NE6       29.88R
TETERBORO      RAIN      53  50  89 E6        29.85S FOG
$$

NYZ177-179-078>081-031000-
LONG ISLAND NEW YORK

CITY           SKY/WX    TMP DP  RH WIND       PRES   REMARKS
FARMINGDALE    LGT RAIN  53  51  93 NE9       29.86S FOG
ISLIP          NOT AVBL
SHIRLEY        LGT RAIN  51  50  96 N3        29.88S FOG
RIVERHEAD        N/A     50  50 100 CALM      29.88S
WESTHAMPTON    CLOUDY    48  48 100 NE6       29.88F
EAST HAMPTON   RAIN      48  48  97 CALM      29.90S
MONTAUK POINT    N/A     50  49  96 NE6       29.91F
$$

NYZ052-065-067-031000-
HUDSON VALLEY

CITY           SKY/WX    TMP DP  RH WIND       PRES   REMARKS
WHITE PLAINS   LGT RAIN  51  49  92 E6        29.86F FOG
NEWBURGH       LGT RAIN  50  50 100 E12       29.89S FOG
MONTGOMERY     LGT RAIN  50  48  93 NE7       29.87F
POUGHKEEPSIE   LGT RAIN  51  48  89 N3        29.89S
ALBANY         CLOUDY    46  43  89 N7        29.91F
$$

NJZ001-105-106-008-010-013-015-019>022-104-031000-
NEW JERSEY

CITY           SKY/WX    TMP DP  RH WIND       PRES   REMARKS
NEWARK/LIBERTY RAIN      54  54 100 NE6       29.85F FOG
TETERBORO      RAIN      53  50  89 E6        29.85S FOG
CALDWELL       LGT RAIN  54  51  90 E6        29.86F FOG
MORRISTOWN     RAIN      54  52  94 CALM      29.86F
SOMERVILLE     RAIN      54  53  97 CALM      29.84S FOG
SUSSEX         HVY RAIN  51  48  89 NE5       29.86F FOG
ANDOVER          N/A     51  50  96 CALM      29.85F
TRENTON        LGT RAIN  55  53  93 N6        29.84F FOG
MILLVILLE      LGT RAIN  56  55  97 E6        29.81F
ATLANTIC CITY  CLOUDY    55  54  96 E9        29.81F
WRIGHTSTOWN    LGT RAIN  54  54 100 NE6       29.81S
TOMS RIVER     CLOUDY    54  50  87 CALM      29.83F
BELMAR         CLOUDY    52  52 100 E8        29.85R
$$

PAZ047>061-062-071-031000-
EASTERN PENNSYLVANIA

CITY           SKY/WX    TMP DP  RH WIND       PRES   REMARKS
PHILADELPHIA   RAIN      57  53  86 NE7       29.83F FOG
ALLENTOWN      LGT RAIN  53  50  89 NE6       29.85F
SCRANTON       LGT RAIN  49  47  93 CALM      29.86S
$$

CTZ002-004>006-009-010-012-RIZ004-006-007-MAZ004-011-015-031000-
SOUTHERN NEW ENGLAND
 IN CT

CITY           SKY/WX    TMP DP  RH WIND       PRES   REMARKS
BRADLEY INTL   RAIN      48  46  93 CALM      29.89F FOG
HARTFORD       LGT RAIN  51  49  92 CALM      29.90F FOG
DANBURY        LGT RAIN  50  48  93 NE3       29.88F FOG
WTRBRY/OXFORD    N/A     48  45  87 CALM      29.89F
BRIDGEPORT     LGT RAIN  52  50  93 NE8       29.87F FOG
MERIDEN        LGT RAIN  50  48  93 CALM      29.89F FOG
NEW HAVEN      LGT RAIN  50  50 100 N3        29.88F FOG
CHESTER        RAIN      48  48 100 CALM      29.89S
GROTON         LGT RAIN  50  50 100 E7        29.89F
WILLIMANTIC    RAIN      49  46  90 CALM      29.90F FOG

 IN RI

CITY           SKY/WX    TMP DP  RH WIND       PRES   REMARKS
PROVIDENCE     LGT RAIN  49  46  90 E3        29.92F
BLOCK ISLAND   LGT RAIN  48  47  96 E7        29.91F
WESTERLY       LGT RAIN  48  45  89 NE5       29.90F FOG

 IN MA

CITY           SKY/WX    TMP DP  RH WIND       PRES   REMARKS
BOSTON         LGT RAIN  45  44  97 SE3       29.94R
WORCESTER      LGT RAIN  44  44 100 S6        29.90R
WESTFIELD      LGT RAIN  47  45  93 CALM      29.90S
PROVINCETOWN   CLOUDY    46  43  89 W3        29.96R
NANTUCKET      CLOUDY    48  44  86 N6        29.93R
$$

ANZ330-335-338-340-345-350-353-355-031000-
COASTAL MARINE OBSERVATIONS


STATION/POSITION TIME  SKY/WX   TEMP    WIND        PRES    VSBY  WAVE
                                AIR SEA DIR/SP/G                  HT/PER
                 (UTC)          (F)     (DEG/KT/KT) (MB)    (MI)  (FT/S)
NY HARB ENTRANCE 0750            52 51   80/  8/ 10 1010.7          3/ 6
20S FIRE ISLAND  0750            49 49   80/ 12/ 14 1010.3          3/ 9
GREAT SOUTH BAY  0800            53 56   40/  8/ 10   N/A
23 SSW MONTAUK P 0850            48 47   70/  6/  8 1011.5          3/ 7
15 E BARNEGAT LI 0822               51                N/A           3/ 9
HUDSON CANYON    NOT AVBL
KINGS POINT      0800            53 54              1011.2
EXECUTION ROCKS  NOT AVBL
CENTRAL LI SOUND 0800            50     100/  4/  4   N/A           0
EASTERN LI SOUND 0800            49 48   40/  2/  4   N/A
ROBBINS REEF     0800            54      70/  7/  9 1010.4
$$


>>>>>>>>>>>>>>>>>>>>>>>>>>>> KEY <<<<<<<<<<<<<<<<<<<<<<<<<<<
>                                                          <
>     SKY/WX - SKY CONDITION/PRESENT WEATHER               <
>     TMP    - TEMPERATURE IN FAHRENHEIT                   <
>     DP     - DEWPOINT IN FAHRENHEIT                      <
>     RH     - RELATIVE HUMIDITY IN PERCENT                <
>     WIND   - DIRECTION AND SPEED IN MPH                  <
>     PRES   - MEAN SEA LEVEL PRESSURE IN INCHES OF HG     <
>     WCI    - WIND CHILL INDEX                            <
>     VSB    - VISIBILITY IN MILES                         <
>     HX     - HEAT INDEX                                  <
>     TC     - TEMPERATURE IN CELSIUS                      <
>     VRB    - VARIABLE WIND DIRECTION                     <
>                                                          <
>>>>>>>>>>>>>>>>>>>>>>>>>>>> KEY <<<<<<<<<<<<<<<<<<<<<<<<<<<






USA.gov is the U.S. government's official web portal to all federal, state and local government web resources and services.